Погода Удское

Погода Удское : погода сейчас, прогноз погоды и архив. Всё, что Вы хотите узнать о погоде Удское!

Поиск расширенной информации на нашем сайте:

Другие новости

Новости СМИ2

Главная страница сайта

Новости сайта

03.07.2017

Напоминаем, что на нашем специализированном сайте Метеоцентр.Азия вы можете получить высокодетализированные автоматические прогнозы погоды по пунктам России, СНГ и мира в авиационном формате (включающие направление и скорость ветра, видимость, явления погоды, количество и форму облачности, нижнюю и верхнюю границу облачности).

Рекомендуем: Стоимость источника бесперебойного питания цена на ups источники бесперебойного питания.

Погода Удское - сегодня

Время (UTC), дата Ветер
(°,м/с) 
Видим.   Явления Облачность Т
(°С)
Тd
(°С)
f(%) Тe
(°С)
Pmin
(гПа)
dP
(гПа)
Po
(мм)
O2
(г/м3)
Тmin Tmax R s Состояние
почвы
21 17.09.17 тихо ()   20000 м  слаб. ливневой дождь  10/5 600 м кучево-дожд., средняя 
[Cb cap|Ac As]
+12.4 +11.8 96 +16  1007.6  -0.1  750  287         
00 18.09.17 230 (ЮЗ) 20000 м  {ливн. осадки}  10/5 300 м кучево-дожд., средняя 
[Cb cap|Ac As]
+14.4 +13.5 94 +22  1007.6  750  284           
03 18.09.17 020 (С) 4000 м  дождь{ливн. осадки}  10/8 300 м кучево-дожд., средняя 
[Cb cap|As op]
+13.4 +13 97 +19  1007.5  -0.1  750  285           
06 18.09.17 050 (СВ) 10 км  слаб. дождь{ливн. осадки}  10/9 300 м кучево-дожд., средняя 
[Cb cap|As op]
+13.2 +12.7 97 +19  1007.1  -0.4  750  286           
12 18.09.17 050 (СВ) 10 км  слаб. ливневой дождь  10/10 300 м кучево-дожд. 
[Cb cap]
+12.7 +12.1 96 +17  1006.8  -0.3  750  286           
15 18.09.17 050 (СВ) 2000 м  ливневой дождь  10/10 300 м кучево-дожд. 
[Cb cap]
+12.5 +11.9 96 +17  1006.2  -0.6  749  286           
18 18.09.17 050 (СВ) 2000 м  ливневой дождь  10/10 300 м кучево-дожд. 
[Cb cap]
+12.1 +11.5 96 +16  1005.2  -1  748  287           
21 18.09.17 тихо ()   2000 м  слаб. дождь{ливн. осадки}  10/10 300 м 
[Frnb|Ns]
+11.8 +11.4 97 +15  1004  -1.1  748  287  +11.5    13    влажная 
00 19.09.17 020 (С) 2000 м  слаб. морось{ливн. осадки, дождь}  10/10 300 м 
[St]
+12.6 +12 96 +17  1003.8  -0.3  747  285           
03 19.09.17 020 (С) 4000 м  слаб. морось  10/10 300 м 
[St]
+12.7 +12.1 96 +17  1003.9  0.1  747  285           
06 19.09.17 050 (СВ) 20000 м  в посл. час морось{дождь}  10/8 300 м кучево-дожд., средняя 
[Cb cap|As op]
+12.5 +10.8 89 +15  1004.2  0.3  748  286           
09 19.09.17 050 (СВ) 20000 м    10/8 600 м кучево-дожд., средняя, верхняя 
[Cb cap|Ac trans|Cs]
+12 +10.7 92 +14  1005.5  1.3  749  287    +13.5     
12 19.09.17 050 (СВ) 20000 м    10/8 600 м кучево-дожд., верхняя 
[Cb cap|Cs]
+11.4 +10.4 94 +15  1006.2  0.7  749  288           
15 19.09.17 020 (С) 10 км    10/10 600 м кучево-дожд. 
[Cb cap]
+11 +10 94 +13  1006.6  0.3  749  288           
18 19.09.17 тихо ()   10 км    10/10 600 м кучево-дожд. 
[Cb cap]
+9.8 +9.4 97 +10  1006.6  749  290           
21 19.09.17 тихо ()   20000 м    10/4 600 м кучево-дожд., средняя 
[Cb cap|As op]
+9.9 +9.5 97 +10  1007.5  0.9  750  290  +9.5        влажная 
00 20.09.17 020 (С) 20000 м    10/4 600 м кучево-дожд., средняя 
[Cb cap|Ac As]
+12.1 +10.4 89 +15  1007.4  750  287           
03 20.09.17 110 (В) 20000 м  в посл. час дождь  10/6 600 м кучево-дожд., средняя 
[Cb cap|Ac trans]
+14.2 +11 81 +18  1006.7  -0.7  749  285           
06 20.09.17 110 (В) 20000 м  слаб. дождь  10/4 600 м кучево-дожд., средняя 
[Cb cap|Ac trans]
+14 +11.6 85 +18  1006.2  -0.5  749  285           
09 20.09.17 тихо ()   20000 м    10/3 600 м кучево-дожд., средняя, верхняя 
[Cb cap|Ac lent|Cc]
+12.5 +10.6 88 +14  1005.4  -0.8  749  286    +14.9  0.0     
12 20.09.17 тихо ()   20000 м    10/6 600 м кучево-дожд., средняя 
[Cb cap|Ac As]
+10.4 +9.8 96 +11  1005.8  0.3  749  289           
15 20.09.17 тихо ()   20000 м  дождь  10/6 600 м кучево-дожд., средняя 
[Cb cap|Ac As]
+9 +8.2 95 +9  1006.6  0.8  749  291           
18 20.09.17 тихо ()   20000 м  слаб. дождь  10/6 600 м кучево-дожд., средняя 
[Cb cap|As op]
+7.4 +7 97 +7  1007.5  0.9  750  293           
21 20.09.17 тихо ()   20000 м  {дождь}  10/8 600 м кучево-дожд., средняя, верхняя 
[Cb cap|As op|Cc]
+6.5 +6.1 97 +7  1008.9  1.4  751  295  +6.2      влажная 
00 21.09.17 270 (З) 20000 м  {дождь}  10/6 600 м кучево-дожд., средняя, верхняя 
[Cb cap|As op|Cc]
+9.5 +6.3 80 +11  1009.3  0.4  751  292           
Время (UTC), дата Ветер
(°,м/с) 
Видим.   Явления Облачность Т
(°С)
Тd
(°С)
f(%) Тe
(°С)
Pmin
(гПа)
dP
(гПа)
Po
(мм)
O2
(г/м3)
Тmin Tmax R s Состояние
почвы

Для получения пояснительной информации подведите курсор к названию столбца.

ПОГОДА Удское - архив

Всё, что Вы хотите узнать о погоде Удское - удобно и подробно!

Выберите нужную дату (начиная с 1 января 2015* года) и нажмите кнопку "Найти".
Будут отображены архивные сводки погоды по пункту Удское, начиная с указанной даты.


Отображать данные в формате CSV (для использования в таблицах Excel)


Внимание! Наш архив погоды предназначен исключительно для личного некоммерческого использования в познавательных целях. Если Вам необходимы официальные справки о состоянии погоды (для производственных, юридических, коммерческих и т.п. целей), обращайтесь в органы Росгидромета.

*Примечание: данная дата относится к архиву по метеостанциям СССР (Россия, СНГ, Балтия).
Архив по метеостанциям Зарубежной Европы и Азии (кроме Китая) хранится 10 дней, по другим регионам земного шара (Китай, Африка, Америка, Австралия, Океания) - 1 день.

Удское - район местоположения метеостанции


Название, широта, долгота, высота метеостанции:
Удское 54.53°ш. 134.42°д. 57 м над ур. моря [Российская Федерация]

Дополнительная информация

В oтличие oт бoльшинства пoгoдных сайтoв мы публикуем пoдрoбную метеoинфoрмацию в детальнoм прoфессиoнальнoм фoрмате.

Характеристики температуры и влажнoсти вoздуха измеряются на высoте 2 м в тени вдали oт зданий и деревьев.
Скoрoсть ветра измеряется на высoте 10 м (на урoвне рoста челoвека скoрoсть ветра ниже в 1.5-2 раза). Если метеoстанция нахoдится в гoрoде или в лесу, тo скoрoсть ветра занижена на 2-4 м/с пo сравнению с oткрытым местoм. Скoрoсть ветра над акватoриями крупных рек и oзёр, а также на вершинах хoлмoв на 2-5 м/с выше, чем в oбычных услoвиях.
Атмoсфернoе давление в разных тoчках местнoсти мoжет значительнo oтличаться oт давления на метеoстанции, в зависимoсти oт услoвий рельефа (при пoдъёме на 10 м давление пoнижается примернo на 1 мм рт.ст.).